Regional Weather Roundup
Issued by NWS Cleveland, OH

Home | Current Version | Previous Version | Text Only | Print | Product List | Glossary Off
Versions: 1 2 3 4 5 6 7 8 9 10 11 12 13 14 15 16 17 18 19 20 21 22 23 24 25 26 27 28 29 30 31 32 33 34 35 36 37 38 39 40 41 42 43 44 45 46 47 48 49 50

000
ASUS41 KCLE 020202
RWRCLE
OHIO REGIONAL WEATHER ROUNDUP
NATIONAL WEATHER SERVICE CLEVELAND, OH
1000 PM EDT FRI AUG 01 2014

NOTE: "FAIR" INDICATES FEW OR NO CLOUDS BELOW 12,000 FEET WITH NO
SIGNIFICANT WEATHER AND/OR OBSTRUCTIONS TO VISIBILITY.

OHZ001>008-015>018-024>027-034-035-043-044-020300-
   NORTHWEST OHIO

CITY           SKY/WX    TMP DP  RH WIND       PRES   REMARKS
DEFIANCE       MOCLDY    68  61  78 CALM      30.10R
FINDLAY        MOCLDY    74  61  63 NE6       30.09R
TOLEDO EXPRESS PTCLDY    68  61  78 CALM      30.10R
TOLEDO EXEC    PTCLDY    70  63  78 CALM      30.10R
LIMA           MOCLDY    72  63  73 S6        30.10R
$$

OHZ009>014-019>023-028>033-038-089-020300-
   NORTHEAST OHIO

CITY           SKY/WX    TMP DP  RH WIND       PRES   REMARKS
CLE-HOPKINS    MOCLDY    73  61  65 N7        30.13R
CLE-LAKEFRONT  CLOUDY    74  65  73 NE7       30.10R
CUY CO. ARPT   CLOUDY    73  66  78 E6        30.13R
LORAIN-ELYRIA  MOCLDY    72  65  78 NE5       30.12R
ASHTABULA      CLOUDY    68  63  84 CALM      30.14R
AKRON-CANTON   MOCLDY    70  62  76 NW10      30.13R
WOOSTER        CLOUDY    66  64  93 CALM      30.12S
MANSFIELD      PTCLDY    67  59  75 E7        30.12R
YOUNGSTOWN     CLOUDY    67  60  78 NE7       30.13R
$$

OHZ042-051>053-060>062-070>072-077>081-020300-
  SOUTHWEST OHIO

CITY           SKY/WX    TMP DP  RH WIND       PRES   REMARKS
CINC-COVINGTON PTCLDY    68  60  75 CALM      30.07R
CINC-LUNKEN    PTCLDY    68  65  90 CALM      30.07R
HAMILTON       MOCLDY    70  65  84 CALM      30.07S
DAYTON         PTCLDY    72  62  71 NE6       30.10R
WRIGHT-PAT AFB NOT AVBL
DAYTON GENERAL CLEAR     72  61  68 CALM      30.08R
WILMINGTON     CLEAR     66  62  87 CALM      30.08R
$$

OHZ036-037-039>041-045>050-054>059-063>069-073>076-082>088-020300-
  CENTRAL AND SOUTHEAST OHIO

CITY           SKY/WX    TMP DP  RH WIND       PRES   REMARKS
COLUMBUS       MOCLDY    76  63  64 NE5       30.08R
OSU AIRPORT    PTCLDY    72  63  73 E5        30.09R
BOLTON FIELD   NOT AVBL
RICKENBACK AFB NOT AVBL
NEWARK         PTCLDY    72  64  76 NE3       30.09R
MARION         PTCLDY    65  61  87 NE3       30.10R
LANCASTER      MOCLDY    71  64  78 CALM      30.09R
ZANESVILLE     PTCLDY    72  63  73 CALM      30.10R
NEW PHILLY     PTCLDY    68  64  87 CALM      30.11R
$$


USA.gov is the U.S. government's official web portal to all federal, state and local government web resources and services.